AirNav   Air Wisconsin Up To $57,000 Bonus
 
 1070 users online  

CO15 Kelly Air Park
Elbert, Colorado, USA

GOING TO ELBERT?


FAA INFORMATION EFFECTIVE 16 JUNE 2022

Location

FAA Identifier: CO15
Lat/Long: 39-13-28.8000N 104-38-23.6400W
39-13.480000N 104-38.394000W
39.2246667,-104.6399000
(estimated)
Elevation: 7040 ft. / 2146 m (estimated)
Variation: 11E (1985)
From city: 6 miles W of ELBERT, CO
Time zone: UTC -6 (UTC -7 during Standard Time)
Zip code: 80106

Airport Operations

Airport use: Private use. Permission required prior to landing
Activation date: 11/1988
Control tower: no
ARTCC: DENVER CENTER
FSS: DENVER FLIGHT SERVICE STATION
Attendance: UNATNDD
Wind indicator: yes
Segmented circle: yes

Airport Communications

UNICOM: 123.05
WX AWOS-3PT at FLY (17 nm S): 118.450 (719-683-5371)

Airport Services

Runway Information

Runway 17/35

Dimensions: 3800 x 36 ft. / 1158 x 11 m
Surface: asphalt
RUNWAY 17  RUNWAY 35
Traffic pattern: leftright

Runway 9/27

Dimensions: 1700 x 50 ft. / 518 x 15 m
Surface: gravel
Operational restrictions: RY 09 NOT RECOMMENDED FOR TAKEOFF OR LANDING.
RUNWAY 9  RUNWAY 27
Traffic pattern: rightleft

Airport Ownership and Management from official FAA records

Ownership: Privately-owned
Owner: KELLY AIR PARK ASSN
24652 DAVID C JOHNSON LOOP
ELBERT, CO 80106-9512
Phone 303-648-3461
OR 303-648-0056.
Manager: FRANK NIEHUS
24652 DAVID C JOHNSON LOOP
ELBERT, CO 80106-9512
Phone 303-434-5257
OTR CTC - ALAN HOOVER 574-551-2656.

Airport Operational Statistics

Aircraft based on the field: 54
Single engine airplanes: 30
Gliders airplanes: 24
    

Additional Remarks

GLIDER ACTIVITY ON & INVOF ARPT.
WX AWOS AT MONUMENT HILL ON SITE: 134.375 (303-648-3479).
ULTRALIGHT ACTIVITY PROHIBITED
FOR CD CTC DENVER APCH AT 303-342-1916.
AEROBATIC PRACTICE AREA 2.7 NM EAST FM 500 FT AGL TO 4000 FT AGL; MNT 123.05.

Instrument Procedures

There are no published instrument procedures at CO15.

Some nearby airports with instrument procedures:

KAPA - Centennial Airport (23 nm NW)
KCOS - City of Colorado Springs Municipal Airport (25 nm S)
KBKF - Buckley Space Force Base (29 nm N)
KCFO - Colorado Air and Space Port Airport (34 nm N)
KDEN - Denver International Airport (38 nm N)
 
Loc | Ops | Rwys | IFR | FBO | Links
Com | Nav | Svcs | Stats | Notes

AirBoss

 
Area around CO15 (Kelly Air Park)
 
Road maps at: MapQuest Bing Google
 
Aerial photo
WARNING: Photo may not be current or correct
Aerial photo of CO15 (Kelly Air Park)
Taken early June 2010

Do you have a better or more recent aerial photo of Kelly Air Park that you would like to share? If so, please send us your photo.

 
Sectional chart

 
Airport distance calculator
Flying to Kelly Air Park? Find the distance to fly.

From to CO15

Sunrise and sunset
Times for 26-Jun-2022
 Local
(UTC-6)
 Zulu
(UTC)
Morning civil twilight05:0311:03
Sunrise05:3511:35
Sunset20:2802:28
Evening civil twilight21:0003:00

Current date and time
Zulu (UTC)  26-Jun-2022 14:08:44
Local (UTC-6)  26-Jun-2022 08:08:44
 
METAR
KMNH 261355Z AUTO 00000KT 10SM OVC019 10/M25 A3059 RMK AO2
KFLY 
17nm S 
261353Z AUTO 13014G19KT 10SM OVC019 12/08 A3059 RMK AO2 T01150075
KAFF 
18nm SW 
261351Z 15004KT 10SM -RA BKN012 OVC024 12/10 A3054 RMK AO2A SLP297 PWINO $
TAF
KAFF 
18nm SW 
251635Z 2516/2617 35012G25KT 9999 VCSH BKN010 BKN020 QNH3022INS BECMG 2516/2517 02012KT 9999 NSW SCT018 SCT030 QNH3032INS WND 14009KT AFT 2518 BECMG 2519/2520 16010G15KT 9999 VCTS SCT070CB SCT150 BKN250 QNH3026INS TEMPO 2521/2602 VRB25G40KT -TSRAGS BKN070CB BKN150 OVC250 BECMG 2602/2603 36012KT 9999 -RA BKN025 OVC035 QNH3037INS BECMG 2605/2606 VRB06KT 3200 -RA BKN005 OVC025 QNH3047INS WND 14009KT AFT 2615 TX21/2521Z TN11/2610Z LAST NO AMDS AFT 2516 NEXT 2711
NOTAMs
Click for the latest NOTAMs
NOTAMs are issued by the DoD/FAA and will open in a separate window not controlled by AirNav.

 

 
 

Would you like to see your business listed on this page?

 If your business provides an interesting product or service to pilots, flight crews, aircraft, or users of the Kelly Air Park, you should consider listing it here.  To start the listing process, click on the button below
 
Add a business
 

Other Pages about Kelly Air Park

www.kellyairpark.com
 
Update a link
 
Copyright © AirNav, LLC. All rights reserved. Privacy Policy  Contact